Погода в Синтанге

Индонезия     0°04′28″N   111°28′44″E
темп.,
°C
ветер,
м/с
пор.,
м/с
влажн.,
%
обл.,
%
осадки,
мм/ч
давл.,
гПа
погр.,
м
23 мая, пн
пн2301:00+24ююв129669 0.0 100846
04:00+23всв019897 2.6 100822
07:00+25юв129010 2.6 1008218
10:00+32в11586 0.0 10081079
13:00+36вюв114441 0.0 10062154
16:00+33ссз135476 0.0 1005374
19:00+28юв017335 0.0 100713
22:00+24ю119699 1.4 100933
24 мая, вт
вт2401:00+24св1197100 3.1 100922
04:00+24вюв0199100 0.1 100929
07:00+25св1695100 0.6 1011313
10:00+31св236191 0.0 10111002
13:00+33с224933 0.0 10071602
16:00+32ссв135880 0.0 1007379
19:00+26ссв257980 0.0 1009111
22:00+24с138493 0.0 101061
25 мая, ср
ср2501:00+24св018674 0.0 100912
04:00+23вюв0190100 0.0 100913
07:00+25вюв0181100 0.0 1011176
10:00+33св01535 0.0 10101048
13:00+35ссз124384 0.0 10071987
16:00+33с1354100 0.0 1006238
19:00+26зюз137899 0.0 100863
22:00+23зсз1599100 4.6 1011193
26 мая, чт
чт2601:00+23с00100100 5.3 100929
04:00+23в00100100 0.1 100941
07:00+24юв0197100 0.1 1011219
10:00+30ссв0168100 0.1 1011997
13:00+33з235184 0.8 10071969
16:00+30ююз126389 0.0 1006233
19:00+25ююз1289100 0.3 100944
22:00+23ссз129999 4.3 101163
27 мая, пт
пт2701:00+23юз0199100 4.4 100921
04:00+22юв129974 0.0 100868
07:00+24вюв139591 0.0 1010220
10:00+30юв225952 0.0 10101023
13:00+35ююв12446 0.0 10061909
16:00+33с115367 0.0 100542
19:00+28вюв1170100 0.0 100711
22:00+26юв127597 0.0 100947